This is the latest recevied weather packets stored in our database for station/object F4GSP-4. If no packets are shown the sender has not sent any weather packets the latest 1 day(s).
| Time | Temp. | Humidity | Pressure | Rain* | Wind** | Luminosity | Snow |
|---|---|---|---|---|---|---|---|
| 1778059388 | 11.11° C | 58% | 1020.3 hPa | - | - | - | - |
| 1778058488 | 11.67° C | 58% | 1020.2 hPa | - | - | - | - |
| 1778057588 | 11.67° C | 59% | 1020 hPa | - | - | - | - |
| 1778054887 | 11.67° C | 59% | 1019.8 hPa | - | - | - | - |
| 1778053987 | 11.11° C | 59% | 1019.7 hPa | - | - | - | - |
| 1778053087 | 11.11° C | 59% | 1019.8 hPa | - | - | - | - |
| 1778052187 | 11.11° C | 59% | 1019.7 hPa | - | - | - | - |
| 1778048586 | 8.89° C | 60% | 1019.8 hPa | - | - | - | - |
| 1778047686 | 8.33° C | 60% | 1019.9 hPa | - | - | - | - |
| 1778046786 | 7.22° C | 60% | 1019.8 hPa | - | - | - | - |
| 1778043185 | 6.67° C | 59% | 1019.5 hPa | - | - | - | - |
| 1778042285 | 6.67° C | 59% | 1019.4 hPa | - | - | - | - |
| 1778041385 | 7.22° C | 59% | 1019.4 hPa | - | - | - | - |
| 1778039584 | 7.22° C | 59% | 1019.7 hPa | - | - | - | - |
| 1778038684 | 7.22° C | 59% | 1019.8 hPa | - | - | - | - |
| 1778037784 | 7.22° C | 59% | 1020 hPa | - | - | - | - |
| 1778036884 | 7.22° C | 59% | 1020 hPa | - | - | - | - |
| 1778035984 | 6.67° C | 59% | 1019.8 hPa | - | - | - | - |
| 1778035084 | 6.67° C | 59% | 1019.7 hPa | - | - | - | - |
| 1778034183 | 7.22° C | 59% | 1019.8 hPa | - | - | - | - |
| 1778032383 | 7.22° C | 59% | 1019.6 hPa | - | - | - | - |
| 1778031483 | 7.22° C | 59% | 1019.7 hPa | - | - | - | - |
| 1778030583 | 6.67° C | 58% | 1019.8 hPa | - | - | - | - |
| 1778029683 | 6.67° C | 58% | 1020 hPa | - | - | - | - |
* Rain since midnight (hover to see other rain measurements)
** Current wind speed in m/s (hover to see current wind gust speed)